TITAN 3C TRANSTAGE DEB, 1959

Orbit data source: Space-Track

TITAN 3C TRANSTAGE DEB, 1959 is space debris in LEO originally from a launch on Fri, 15 Oct 1965 UTC launched from the Air Force Eastern Test Range (AFETR). Debris objects in space refer to the collection of defunct objects orbiting the Earth. Examples of debris include non-operational satellites, rocket bodies, and fragments generated from explosions, collisions, or faulty payload assembly.

Loading next visibility...
Identifier
1959, 1965-082GU
Orbit
LEO
Country
Flag of USUS
Related business
Manufacturer
Unknown
Mission
Spacecraft
Bus & Motor
Unknown
Mass
Unknown
Launch date (UTC)
1965-10-15 (60 years ago)
Launch vehicle
Unknown
Launch site
Air Force Eastern Test Range (AFETR)
Object type
Payload
Rocket body
Debris
Shape & HBR
Unknown
Radar Cross Section
Small (<0.1 m²)

Expand to show TLE details & history
Last TLE update: 22 hours ago

TLE from 22 hours ago
0 TITAN 3C TRANSTAGE DEB
1 01959U 65082GU  25261.14027539  .00000536  00000-0  10041-3 0  9995
2 01959  31.7894 177.1481 0062820 291.4858  67.9091 14.58622395174001
Epoch: 2025-09-18T03:21Z
TLE epoch observation values (Epoch: 2025-09-18T03:21:59.793Z)
Latitude
0.00001°
Longitude
129.34283°
Altitude
679.773 km
Speed
7.528 km/s
True Right ascension
11h 48m 35s
True Declination
0° 00' 00"
Sunlit
Object was in daylight at epoch
Visualization orbit readout
Latitude
Unknown
Longitude
Unknown
Altitude
Unknown
Speed
Unknown
Apparent Right ascension
Unknown
Apparent Declination
Unknown
Sunlit
N/A
Visualization observer readout
Local Sidereal Time
18:05:36
Azimuth
Unknown
Elevation
Unknown
Doppler factor
Unknown
Orbital elements
Apogee altitude
745.738 km
Perigee altitude
656.792 km
Semi-major axis
7,079.402 km
Eccentricity
0.00628
Inclination
31.7894°
RAAN
177.1481°
Arg. of periapsis
291.4858°
True anomaly
68.57808°
Mean anomaly
67.9091°
Eccentric anomaly
68.24339°
Mean motion
3.64375 °/min
Orbital period
98.8 mins
BSTAR
0.00010041
Loading maneuver chart data...
Computing Atmospheric mass density...

Documentation

Showing up to 5 results
|